Location: Juzet
(42.9779°N, 0.7597°E)
Time: 02:08:32
(UTC+00:00)

Cosmos 1656 - Pass Details

Date: 14 July 2020
Orbit: 800 x 848 km, 71.1° (Epoch: 04 August)

Event Time Altitude Azimuth Distance (km) Brightness Sun altitude
Rises 02:28:46 0° 326° (NW) 3,316 7.1 -17.2°
Reaches altitude 10° 02:31:23 10° 317° (NW) 2,382 6.2 -16.9°
Maximum altitude 02:36:09 32° 256° (WSW) 1,347 4.4 -16.4°
Enters shadow 02:37:55 26° 222° (SW) 1,530 4.4 -16.2°
